| time (UTC) | temp C | wind direction | speed KPH | gust KPH | rain 1hr cm | rain 24hr cm | rain mn cm | humidity % | barometer mb |
| 20260502170501 | 21 | 2 | 8.0 | 20.9 | 0.00 | 3.20 | 0.00 | 55 | 1020.1 |
| 20260502164002 | 21 | 344 | 9.7 | 19.3 | 0.00 | 3.63 | 0.00 | 55 | 1020.1 |
| 20260502163024 | 20 | 60 | 9.7 | 25.7 | 0.00 | 3.63 | 0.00 | 58 | 1020.2 |
| 20260502162500 | 20 | 45 | 9.7 | 25.7 | 0.00 | 3.63 | 0.00 | 58 | 1020.2 |
| 20260502162002 | 20 | 344 | 8.0 | 17.7 | 0.00 | 3.63 | 0.00 | 61 | 1020.2 |
| 20260502161516 | 20 | 323 | 8.0 | 19.3 | 0.00 | 3.63 | 0.00 | 61 | 1020.1 |
| 20260502161002 | 20 | 7 | 8.0 | 19.3 | 0.00 | 3.63 | 0.00 | 62 | 1020.1 |
| 20260502160501 | 19 | 348 | 8.0 | 19.3 | 0.00 | 3.63 | 0.00 | 62 | 1020.1 |
| 20260502151516 | 17 | 52 | 9.7 | 24.1 | 0.00 | 3.76 | 0.00 | 68 | 1019.8 |
| 20260502151001 | 17 | 8 | 9.7 | 22.5 | 0.00 | 3.76 | 0.00 | 69 | 1019.9 |
| 20260502150501 | 17 | 9 | 8.0 | 17.7 | 0.00 | 3.76 | 0.00 | 69 | 1019.9 |
| 20260502130501 | 12 | 343 | 4.8 | 12.9 | 0.00 | 4.52 | 0.00 | 89 | 1018.6 |
| 20260502123501 | 11 | 4 | 3.2 | 8.0 | 0.00 | 5.00 | 0.00 | 90 | 1018.3 |
| 20260502122501 | 11 | 333 | 3.2 | 6.4 | 0.00 | 5.00 | 0.00 | 90 | 1018.2 |
| 20260502122002 | 11 | 348 | 3.2 | 6.4 | 0.00 | 5.00 | 0.00 | 90 | 1018.1 |
| 20260502121517 | 11 | 15 | 1.6 | 6.4 | 0.00 | 5.00 | 0.00 | 90 | 1018.0 |
| 20260502120502 | 11 | 339 | 3.2 | 6.4 | 0.00 | 5.00 | 0.00 | 89 | 1018.0 |
| 20260502115501 | 11 | 301 | 3.2 | 6.4 | 0.00 | 5.49 | 0.00 | 89 | 1017.8 |
| 20260502115000 | 11 | 329 | 3.2 | 6.4 | 0.00 | 5.49 | 0.00 | 89 | 1017.7 |
| 20260502114514 | 11 | 342 | 3.2 | 6.4 | 0.00 | 5.49 | 0.00 | 89 | 1017.6 |
| 20260502113024 | 11 | 316 | 3.2 | 8.0 | 0.00 | 5.49 | 0.00 | 89 | 1017.5 |
| 20260502112001 | 11 | 344 | 1.6 | 6.4 | 0.00 | 5.49 | 0.00 | 88 | 1017.5 |
| 20260502111515 | 11 | 343 | 3.2 | 6.4 | 0.00 | 5.49 | 0.00 | 88 | 1017.4 |
| 20260502111001 | 11 | 328 | 3.2 | 6.4 | 0.00 | 5.49 | 0.00 | 88 | 1017.4 |
| 20260502110500 | 11 | 358 | 3.2 | 8.0 | 0.00 | 5.49 | 0.00 | 88 | 1017.3 |
| 20260502110023 | 11 | 336 | 3.2 | 8.0 | 0.00 | 6.22 | 0.00 | 88 | 1017.3 |
| 20260502105001 | 11 | 315 | 3.2 | 9.7 | 0.00 | 6.22 | 0.00 | 88 | 1017.1 |
| 20260502104515 | 11 | 335 | 3.2 | 8.0 | 0.00 | 6.22 | 0.00 | 87 | 1017.1 |
| 20260502104000 | 11 | 329 | 3.2 | 8.0 | 0.00 | 6.22 | 0.00 | 87 | 1017.0 |
| 20260502103501 | 11 | 323 | 3.2 | 11.3 | 0.00 | 6.22 | 0.00 | 87 | 1017.0 |
| 20260502103027 | 11 | 307 | 3.2 | 11.3 | 0.00 | 6.22 | 0.00 | 87 | 1016.9 |
| 20260502102001 | 11 | 329 | 3.2 | 12.9 | 0.00 | 6.22 | 0.00 | 87 | 1016.9 |
| 20260502101001 | 11 | 348 | 3.2 | 6.4 | 0.00 | 6.22 | 0.00 | 87 | 1016.5 |
| 20260502091514 | 12 | 19 | 3.2 | 8.0 | 0.00 | 7.54 | 0.00 | 85 | 1015.7 |
| 20260502071000 | 12 | 62 | 3.2 | 8.0 | 0.00 | 8.48 | 0.00 | 87 | 1015.5 |
| 20260502070027 | 12 | 25 | 4.8 | 12.9 | 0.00 | 8.48 | 0.00 | 88 | 1015.6 |
| 20260502065458 | 12 | 358 | 4.8 | 12.9 | 0.00 | 8.51 | 0.00 | 88 | 1015.5 |
| 20260502065000 | 12 | 334 | 4.8 | 12.9 | 0.00 | 8.51 | 0.00 | 88 | 1015.4 |
| 20260502064514 | 12 | 358 | 4.8 | 11.3 | 0.00 | 8.51 | 0.00 | 88 | 1015.4 |
| 20260502063959 | 12 | 16 | 4.8 | 11.3 | 0.00 | 8.51 | 0.00 | 88 | 1015.3 |
| 20260502063459 | 12 | 16 | 4.8 | 14.5 | 0.00 | 8.51 | 0.00 | 88 | 1015.2 |
| 20260502062459 | 12 | 358 | 4.8 | 12.9 | 0.00 | 8.51 | 0.00 | 88 | 1015.2 |
| 20260502061959 | 12 | 348 | 4.8 | 16.1 | 0.00 | 8.51 | 0.00 | 88 | 1015.2 |
| 20260502061514 | 12 | 88 | 6.4 | 16.1 | 0.00 | 8.51 | 0.00 | 88 | 1015.2 |
| 20260502061000 | 12 | 8 | 4.8 | 16.1 | 0.00 | 8.51 | 0.00 | 88 | 1015.2 |
| 20260502060027 | 13 | 4 | 8.0 | 19.3 | 0.00 | 8.51 | 0.00 | 88 | 1015.1 |
| 20260502055504 | 13 | 23 | 6.4 | 19.3 | 0.00 | 8.69 | 0.00 | 88 | 1015.2 |
| 20260502055005 | 13 | 70 | 6.4 | 17.7 | 0.00 | 8.69 | 0.00 | 88 | 1015.2 |
| 20260502054519 | 13 | 25 | 8.0 | 17.7 | 0.00 | 8.69 | 0.00 | 88 | 1015.1 |
| 20260502054005 | 13 | 358 | 8.0 | 17.7 | 0.00 | 8.69 | 0.00 | 88 | 1015.1 |
| 20260502053504 | 13 | 25 | 8.0 | 20.9 | 0.00 | 8.69 | 0.00 | 88 | 1015.0 |
| 20260502053027 | 13 | 304 | 6.4 | 20.9 | 0.00 | 8.69 | 0.00 | 89 | 1015.0 |
| 20260502052504 | 13 | 25 | 6.4 | 16.1 | 0.00 | 8.69 | 0.00 | 89 | 1015.0 |
| 20260502052004 | 13 | 322 | 8.0 | 16.1 | 0.00 | 8.69 | 0.00 | 89 | 1015.0 |
| 20260502051005 | 13 | 23 | 9.7 | 20.9 | 0.00 | 8.69 | 0.00 | 89 | 1015.0 |
| 20260502050503 | 13 | 348 | 9.7 | 20.9 | 0.00 | 8.69 | 0.00 | 89 | 1015.0 |
| 20260502050024 | 13 | 48 | 8.0 | 19.3 | 0.00 | 9.27 | 8.69 | 89 | 1015.0 |
| 20260502045504 | 13 | 12 | 8.0 | 22.5 | 0.00 | 9.27 | 8.69 | 89 | 1014.9 |
| 20260502045004 | 13 | 54 | 8.0 | 22.5 | 0.00 | 9.27 | 8.69 | 89 | 1014.8 |
| 20260502044519 | 13 | 82 | 8.0 | 22.5 | 0.00 | 9.27 | 8.69 | 89 | 1014.8 |
| 20260502044004 | 13 | 348 | 8.0 | 20.9 | 0.00 | 9.27 | 8.69 | 89 | 1014.8 |
| 20260502043504 | 13 | 308 | 6.4 | 22.5 | 0.00 | 9.27 | 8.69 | 89 | 1014.8 |
| 20260502043028 | 13 | 57 | 6.4 | 22.5 | 0.00 | 9.27 | 8.69 | 90 | 1014.9 |
| 20260502042504 | 13 | 87 | 6.4 | 16.1 | 0.00 | 9.27 | 8.69 | 90 | 1014.9 |
| 20260502042004 | 13 | 311 | 8.0 | 19.3 | 0.00 | 9.27 | 8.69 | 90 | 1014.8 |
| 20260502041519 | 13 | 301 | 8.0 | 19.3 | 0.00 | 9.27 | 8.69 | 90 | 1014.7 |
| 20260502041005 | 13 | 24 | 8.0 | 22.5 | 0.00 | 9.27 | 8.69 | 90 | 1014.7 |
| 20260502040503 | 13 | 56 | 8.0 | 22.5 | 0.00 | 9.27 | 8.69 | 90 | 1014.7 |
| 20260502040029 | 13 | 89 | 8.0 | 17.7 | 0.00 | 9.27 | 8.69 | 90 | 1014.9 |
| 20260502035005 | 13 | 49 | 9.7 | 22.5 | 0.03 | 9.27 | 8.69 | 90 | 1014.9 |
| 20260502034004 | 13 | 3 | 8.0 | 22.5 | 0.03 | 9.27 | 8.69 | 90 | 1014.9 |
| 20260502033504 | 13 | 318 | 9.7 | 22.5 | 0.03 | 9.27 | 8.69 | 90 | 1014.7 |
| 20260502033027 | 13 | 348 | 8.0 | 17.7 | 0.03 | 9.27 | 8.69 | 90 | 1014.5 |
| 20260502032504 | 13 | 4 | 8.0 | 22.5 | 0.05 | 9.27 | 8.69 | 90 | 1014.4 |
| 20260502032005 | 13 | 84 | 8.0 | 22.5 | 0.08 | 9.27 | 8.69 | 90 | 1014.4 |
| 20260502031005 | 13 | 353 | 6.4 | 16.1 | 0.13 | 9.27 | 8.69 | 90 | 1014.3 |
| 20260502030503 | 13 | 353 | 8.0 | 20.9 | 0.15 | 9.27 | 8.69 | 90 | 1014.1 |
| 20260502025503 | 13 | 290 | 8.0 | 22.5 | 0.20 | 9.27 | 8.69 | 90 | 1013.8 |
| 20260502025003 | 13 | 54 | 8.0 | 17.7 | 0.23 | 9.25 | 8.66 | 90 | 1013.8 |
| 20260502024518 | 13 | 48 | 9.7 | 24.1 | 0.25 | 9.25 | 8.66 | 90 | 1013.5 |
| 20260502024004 | 13 | 27 | 8.0 | 24.1 | 0.28 | 9.25 | 8.66 | 90 | 1013.1 |
| 20260502022004 | 13 | 358 | 8.0 | 25.7 | 0.28 | 9.19 | 8.61 | 90 | 1013.2 |
| 20260502021519 | 13 | 40 | 6.4 | 16.1 | 0.28 | 9.17 | 8.59 | 90 | 1013.3 |
| 20260502021005 | 13 | 358 | 4.8 | 14.5 | 0.33 | 9.14 | 8.56 | 90 | 1013.4 |
| 20260502020504 | 13 | 58 | 6.4 | 19.3 | 0.33 | 9.12 | 8.53 | 91 | 1013.0 |
| 20260502020020 | 13 | 335 | 6.4 | 19.3 | 0.36 | 9.09 | 8.51 | 91 | 1013.0 |
| 20260502015502 | 13 | 353 | 8.0 | 17.7 | 0.36 | 9.07 | 8.48 | 90 | 1013.0 |
| 20260502015003 | 13 | 2 | 8.0 | 17.7 | 0.30 | 9.02 | 8.43 | 90 | 1013.0 |
| 20260502014518 | 13 | 348 | 9.7 | 20.9 | 0.28 | 8.99 | 8.41 | 90 | 1012.8 |
| 20260502014003 | 14 | 284 | 8.0 | 20.9 | 0.28 | 8.97 | 8.38 | 90 | 1012.6 |
| 20260502013504 | 14 | 358 | 8.0 | 17.7 | 0.30 | 8.97 | 8.38 | 90 | 1013.0 |
| 20260502012502 | 14 | 12 | 8.0 | 17.7 | 0.33 | 8.94 | 8.36 | 90 | 1012.2 |
| 20260502012003 | 14 | 348 | 9.7 | 22.5 | 0.33 | 8.92 | 8.33 | 90 | 1012.1 |
| 20260502011519 | 14 | 23 | 8.0 | 22.5 | 0.28 | 8.86 | 8.28 | 90 | 1012.2 |
| 20260502011004 | 15 | 23 | 4.8 | 12.9 | 0.23 | 8.81 | 8.23 | 91 | 1012.2 |
| 20260502010503 | 15 | 344 | 3.2 | 9.7 | 0.20 | 8.76 | 8.18 | 90 | 1012.3 |
| 20260502010028 | 14 | 40 | 4.8 | 9.7 | 0.20 | 8.74 | 8.15 | 90 | 1012.3 |
| 20260502005003 | 14 | 233 | 6.4 | 19.3 | 0.28 | 8.71 | 8.13 | 90 | 1013.1 |
| 20260502004004 | 15 | 348 | 6.4 | 17.7 | 0.33 | 8.69 | 8.10 | 90 | 1011.4 |
| 20260502003504 | 15 | 308 | 8.0 | 16.1 | 0.33 | 8.66 | 8.08 | 90 | 1011.1 |
| 20260502002502 | 15 | 26 | 9.7 | 24.1 | 0.28 | 8.61 | 8.03 | 90 | 1011.1 |
| 20260502002003 | 15 | 31 | 8.0 | 20.9 | 0.25 | 8.59 | 8.00 | 90 | 1011.2 |
| 20260502001002 | 15 | 6 | 6.4 | 14.5 | 0.28 | 8.59 | 8.00 | 90 | 1011.7 |
| 20260502000501 | 15 | 353 | 8.0 | 16.1 | 0.36 | 8.56 | 7.98 | 90 | 1011.8 |
| 20260502000031 | 15 | 19 | 8.0 | 19.3 | 0.53 | 8.53 | 7.95 | 90 | 1011.3 |
| 20260501235004 | 15 | 318 | 4.8 | 9.7 | 0.64 | 8.43 | 7.85 | 90 | 1012.2 |
| 20260501234004 | 15 | 341 | 6.4 | 17.7 | 0.58 | 8.36 | 7.77 | 90 | 1011.3 |
| 20260501232503 | 15 | 301 | 6.4 | 19.3 | 0.56 | 8.33 | 7.75 | 90 | 1010.2 |
| 20260501232003 | 15 | 353 | 6.4 | 19.3 | 0.56 | 8.33 | 7.75 | 90 | 1010.2 |
| 20260501231005 | 15 | 96 | 6.4 | 14.5 | 0.53 | 8.31 | 7.72 | 90 | 1009.7 |
| 20260501230502 | 15 | 8 | 4.8 | 14.5 | 0.43 | 8.20 | 7.62 | 90 | 1010.2 |
| 20260501230028 | 15 | 93 | 4.8 | 14.5 | 0.18 | 7.95 | 7.37 | 90 | 1010.6 |
| 20260501225502 | 15 | 9 | 6.4 | 16.1 | 0.08 | 7.85 | 7.26 | 90 | 1012.1 |
| 20260501225004 | 15 | 329 | 8.0 | 24.1 | 0.03 | 7.80 | 7.21 | 90 | 1010.6 |
| 20260501224518 | 15 | 26 | 6.4 | 24.1 | 0.00 | 7.77 | 7.19 | 90 | 1009.0 |
| 20260501224003 | 15 | 47 | 6.4 | 16.1 | 0.00 | 7.77 | 7.19 | 90 | 1009.8 |
| 20260501223503 | 15 | 29 | 9.7 | 24.1 | 0.00 | 7.77 | 7.19 | 90 | 1009.6 |
| 20260501222004 | 16 | 16 | 9.7 | 24.1 | 0.05 | 7.77 | 7.19 | 90 | 1009.1 |
| 20260501221517 | 16 | 49 | 9.7 | 24.1 | 0.08 | 7.77 | 7.19 | 90 | 1009.1 |
| 20260501221003 | 16 | 8 | 9.7 | 20.9 | 0.08 | 7.77 | 7.19 | 90 | 1009.4 |
| 20260501220503 | 16 | 358 | 11.3 | 22.5 | 0.08 | 7.77 | 7.19 | 91 | 1009.6 |
| 20260501215002 | 16 | 348 | 9.7 | 20.9 | 0.08 | 7.77 | 7.19 | 91 | 1010.1 |
| 20260501214517 | 16 | 73 | 9.7 | 20.9 | 0.10 | 7.77 | 7.19 | 91 | 1010.1 |
| 20260501214003 | 16 | 8 | 8.0 | 20.9 | 0.10 | 7.77 | 7.19 | 91 | 1010.2 |
| 20260501213502 | 16 | 348 | 6.4 | 20.9 | 0.13 | 7.77 | 7.19 | 91 | 1010.6 |
| 20260501213025 | 16 | 358 | 4.8 | 16.1 | 0.18 | 7.77 | 7.19 | 91 | 1010.7 |
| 20260501212502 | 16 | 32 | 6.4 | 16.1 | 0.15 | 7.75 | 7.16 | 91 | 1010.4 |
| 20260501212002 | 16 | 6 | 6.4 | 16.1 | 0.15 | 7.72 | 7.14 | 91 | 1010.1 |
| 20260501211516 | 16 | 287 | 4.8 | 14.5 | 0.15 | 7.70 | 7.11 | 91 | 1010.2 |
| 20260501211002 | 16 | 85 | 6.4 | 16.1 | 0.20 | 7.70 | 7.11 | 91 | 1009.9 |
| 20260501205003 | 16 | 35 | 8.0 | 19.3 | 0.51 | 7.70 | 7.11 | 91 | 1009.1 |
| 20260501203502 | 16 | 23 | 4.8 | 16.1 | 0.51 | 7.65 | 7.06 | 91 | 1009.0 |
| 20260501203028 | 16 | 50 | 6.4 | 19.3 | 0.58 | 7.59 | 7.01 | 91 | 1009.5 |
| 20260501202502 | 16 | 60 | 8.0 | 19.3 | 0.58 | 7.59 | 7.01 | 91 | 1009.1 |
| 20260501201516 | 16 | 55 | 6.4 | 16.1 | 0.56 | 7.54 | 6.96 | 91 | 1009.0 |
| 20260501201002 | 16 | 60 | 8.0 | 16.1 | 0.56 | 7.49 | 6.91 | 92 | 1008.7 |
| 20260501200501 | 16 | 33 | 8.0 | 16.1 | 0.64 | 7.39 | 6.81 | 92 | 1008.5 |
| 20260501200027 | 16 | 39 | 8.0 | 19.3 | 0.56 | 7.32 | 6.73 | 91 | 1008.9 |
| 20260501194517 | 16 | 304 | 6.4 | 12.9 | 0.51 | 7.16 | 6.58 | 92 | 1008.6 |
| 20260501194003 | 16 | 98 | 6.4 | 16.1 | 0.48 | 7.14 | 6.55 | 91 | 1008.3 |
| 20260501193501 | 16 | 33 | 4.8 | 14.5 | 0.53 | 7.14 | 6.55 | 91 | 1008.5 |
| 20260501193025 | 17 | 8 | 4.8 | 16.1 | 0.53 | 7.01 | 6.43 | 91 | 1008.6 |
| 20260501192002 | 17 | 10 | 3.2 | 11.3 | 0.61 | 7.01 | 6.43 | 92 | 1008.8 |
| 20260501191517 | 17 | 32 | 3.2 | 8.0 | 0.61 | 6.99 | 6.40 | 92 | 1008.3 |
| 20260501191002 | 17 | 30 | 3.2 | 8.0 | 0.56 | 6.93 | 6.35 | 91 | 1008.6 |
| 20260501190502 | 17 | 348 | 3.2 | 8.0 | 0.41 | 6.76 | 6.17 | 91 | 1008.8 |
| 20260501190030 | 17 | 91 | 3.2 | 11.3 | 0.46 | 6.73 | 6.15 | 92 | 1009.2 |
| 20260501185502 | 17 | 19 | 3.2 | 11.3 | 0.48 | 6.71 | 6.12 | 92 | 1009.1 |
| 20260501185002 | 16 | 20 | 1.6 | 9.7 | 0.46 | 6.68 | 6.10 | 91 | 1008.9 |
| 20260501184517 | 16 | 52 | 4.8 | 16.1 | 0.46 | 6.65 | 6.07 | 91 | 1009.1 |
| 20260501184004 | 16 | 76 | 4.8 | 16.1 | 0.48 | 6.65 | 6.07 | 91 | 1008.7 |
| 20260501183501 | 16 | 17 | 4.8 | 12.9 | 0.46 | 6.60 | 6.02 | 91 | 1008.8 |
| 20260501183024 | 16 | 25 | 4.8 | 16.1 | 0.36 | 6.48 | 5.89 | 91 | 1008.6 |
| 20260501182501 | 16 | 73 | 4.8 | 12.9 | 0.30 | 6.43 | 5.84 | 91 | 1008.6 |
| 20260501182002 | 16 | 14 | 4.8 | 19.3 | 0.30 | 6.40 | 5.82 | 91 | 1008.2 |
| 20260501181517 | 16 | 21 | 4.8 | 19.3 | 0.28 | 6.38 | 5.79 | 91 | 1007.9 |
| 20260501180501 | 16 | 98 | 8.0 | 19.3 | 0.28 | 6.35 | 5.77 | 91 | 1007.1 |
| 20260501180027 | 16 | 154 | 4.8 | 14.5 | 0.18 | 6.25 | 5.66 | 91 | 1007.8 |
| 20260501175502 | 16 | 67 | 4.8 | 14.5 | 0.15 | 6.22 | 5.64 | 91 | 1008.6 |
| 20260501175002 | 16 | 81 | 6.4 | 17.7 | 0.15 | 6.22 | 5.64 | 91 | 1008.9 |
| 20260501174517 | 16 | 57 | 6.4 | 19.3 | 0.15 | 6.20 | 5.61 | 91 | 1009.3 |
| 20260501174010 | 17 | 16 | 6.4 | 19.3 | 0.13 | 6.17 | 5.59 | 91 | 1009.2 |
| 20260501173502 | 17 | 30 | 4.8 | 14.5 | 0.15 | 6.15 | 5.56 | 91 | 1009.5 |